CW9443 Weather Reports


Display with metric or nautical units.
time (UTC)temp
F
wind
direction
speed
MPH
gust
MPH
rain 1hr
in
rain 24hr
in
rain mn
in
humidity
%
barometer
mb
20260504013037 59 244 1.0 0.0 0.00 0.00 0.00 74 1011.9
20260504011528 59 204 0.0 0.0 0.00 0.00 0.00 69 1012.0
20260504010028 61 233 0.0 0.0 0.00 0.00 0.00 65 1012.0
20260504003029 62 223 0.0 0.0 0.00 0.00 0.00 64 1011.5
20260504001535 62 223 0.0 0.0 0.00 0.00 0.00 64 1011.6
20260504000028 63 219 0.0 0.0 0.00 0.00 0.00 64 1011.4
20260503233045 65 209 0.0 0.0 0.00 0.00 0.00 60 1011.2
20260503231542 63 207 0.0 0.0 0.00 0.00 0.00 63 1011.5
20260503230044 63 203 0.0 0.0 0.00 0.00 0.00 63 1011.8
20260503223011 63 200 0.0 0.0 0.00 0.00 0.00 64 1012.0
20260503221511 62 198 0.0 0.0 0.00 0.00 0.00 63 1012.2
20260503220011 63 196 0.0 0.0 0.00 0.00 0.00 63 1012.3
20260503213010 62 223 0.0 0.0 0.00 0.00 0.00 65 1012.5
20260503211509 61 227 1.0 0.0 0.00 0.00 0.00 68 1012.6
20260503210008 60 227 1.0 0.0 0.00 0.00 0.00 68 1012.7
20260503203017 60 235 1.0 0.0 0.00 0.00 0.00 71 1012.7
20260503201514 60 230 1.0 0.0 0.00 0.00 0.00 73 1012.7
20260503200013 60 217 1.0 0.0 0.00 0.00 0.00 73 1012.8
20260503193021 60 286 0.0 0.0 0.00 0.00 0.00 73 1012.8
20260503191529 61 279 0.0 0.0 0.00 0.00 0.00 71 1012.8
20260503190021 61 301 0.0 0.0 0.00 0.00 0.00 71 1012.9
20260503183109 60 301 0.0 0.0 0.00 0.00 0.00 72 1013.1
20260503071611 57 221 0.0 0.0 0.00 0.00 0.00 90 1011.4
20260503053055 57 221 0.0 0.0 0.00 0.00 0.00 89 1011.2
20260503051555 57 221 0.0 0.0 0.00 0.00 0.00 89 1011.2
20260503050055 57 221 0.0 0.0 0.00 0.00 0.00 90 1011.1
20260503043001 57 221 0.0 0.0 0.00 0.00 0.00 89 1010.7
20260503041503 57 221 0.0 0.0 0.00 0.00 0.00 89 1010.6
20260503040100 57 221 0.0 0.0 0.00 0.00 0.00 88 1010.5
20260503033107 58 221 0.0 0.0 0.00 0.00 0.00 88 1010.0
20260503031559 58 221 0.0 0.0 0.00 0.00 0.00 87 1009.7
20260503030058 58 221 0.0 0.0 0.00 0.00 0.00 86 1009.6
20260503023010 60 221 0.0 0.0 0.00 0.00 0.00 82 1009.3
20260503021510 61 242 0.0 0.0 0.00 0.00 0.00 80 1009.2
20260503020009 62 244 0.0 0.0 0.00 0.00 0.00 78 1009.0